AMAZONAS 4A

Last updated on Thu Oct 30 2025 00:02:49 GMT+0000 (Coordinated Universal Time)

1 39616U 14011A 25302.46207464 -.00000243 00000+0 00000+0 0 9995 2 39616 0.0555 196.1134 0005735 20.0573 274.2683 1.00271991 42406
UTC large
Height (km)
Speed (km/s)
/
Latitude / Longitude
Inclination (degrees)
Orbital Period (minutes)
Azimuth
Elevation
Range (km)
Doppler Factor

Next 0 passes for location: London (51.5072 / 0.1276)

Sorry there are no passes over London.